Location: ???????
(55.4362°N, 38.1183°E)
Time: 08:39:01
(UTC+00:00)

Oscar 11 - Pass Details

Date: 07 December 2021
Orbit: 611 x 625 km, 97.6° (Epoch: 25 January)

Event Time Altitude Azimuth Distance (km) Brightness Sun altitude
Rises 02:30:16 0° 18° (NNE) 2,922 10.7 -25.3°
Reaches altitude 10° 02:32:35 10° 26° (NNE) 2,009 9.9 -25.0°
Maximum altitude 02:36:43 40° 97° (E) 921 8.4 -24.4°
Drops below altitude 10° 02:40:48 10° 168° (SSE) 1,985 9.8 -23.8°
Sets 02:43:05 0° 176° (S) 2,884 10.6 -23.5°
